NOTICE: In January 2020, USGS WaterWatch began operating in maintenance-only mode. Existing tools, features, and web data services are being fully maintained as before, but new tools and enhancements will no longer be developed. Please click here for more information or contact USGS WaterWatch if you have any questions.
Choose a state:
Most recent flow and stage for Massachusetts
(Stations highlighted in red are currently above flood stage)
USGS
station
ID
USGS station name NWS
flood
stage
(ft)
Most recent
stage
(ft)
Most recent
flow
(cfs)
Historical
peaks
(cfs)
Most recent
local
date/time
NWS
station
ID
01094400 NORTH NASHUA RIVER AT FITCHBURG, MA 6.5 2.62 57.5 3,930 2021-07-27 16:30:00 FBGM3
01094500 NORTH NASHUA RIVER NEAR LEOMINSTER, MA   2.42 142 16,300 2021-07-27 16:15:00  
01095220 STILLWATER RIVER NEAR STERLING, MA   4.59 31.2 1,850 2021-07-27 16:30:00  
01095375 QUINAPOXET RIVER AT CANADA MILLS NEAR HOLDEN, MA   7.56 77.5 2,190 2021-07-27 16:30:00  
01095434 GATES BROOK NEAR WEST BOYLSTON, MA   1.28 2.01 207 2021-07-27 16:20:00  
01095503 NASHUA RIVER, WATER STREET BRIDGE, AT CLINTON, MA   2.74 217 545 2021-07-27 16:00:00  
01096000 SQUANNACOOK RIVER NEAR WEST GROTON, MA 7 2.34 78.4 4,820 2021-07-27 16:00:00 WGTM3
01096500 NASHUA RIVER AT EAST PEPPERELL, MA 8 2.81 799 20,900 2021-07-27 16:30:00 DNSM3
01097000 ASSABET RIVER AT MAYNARD, MA 5 2.61 212 4,250 2021-07-27 16:15:00 MAYM3
01097300 NASHOBA BROOK NEAR ACTON, MA   3.74 10.8 679 2021-07-27 16:45:00  
01098499 LAKE COCHITUATE AT FRAMINGHAM, MA   8.31

 

  2021-07-27 16:00:00  
01098500 COCHITUATE BK BL LAKE COCHITUATE AT FRAMINGHAM, MA   4.50 23.1 230 2021-07-27 16:30:00  
01098530 SUDBURY RIVER AT SAXONVILLE, MA 10 5.64 115 2,570 2021-07-27 16:15:00 SAXM3
01099500 CONCORD R BELOW R MEADOW BROOK, AT LOWELL, MA 8 6.07 1,150 5,840 2021-07-27 16:30:00 LCNM3
01100000 MERRIMACK RIVER BL CONCORD RIVER AT LOWELL, MA 52 44.66 10,100 173,000 2021-07-27 16:30:00 LOWM3
01100500 MERRIMACK RIVER AT LAWRENCE, MA 24 13.44

 

174,000 2021-07-27 16:30:00 LAWM3
01100568 SHAWSHEEN RIVER AT HANSCOM FIELD NEAR BEDFORD, MA 6 0.80 3.19 794 2021-07-27 16:15:00 HSCM3
01100600 SHAWSHEEN RIVER NEAR WILMINGTON, MA 7 2.84 52.0 1,880 2021-07-27 16:30:00 WLMM3
01100627 SHAWSHEEN RIVER AT BALMORAL STREET AT ANDOVER, MA 29 24.59 107 3,050 2021-07-27 16:30:00 ANDM3
01100693 MERRIMACK R 0.3 MILES U.S.RT 125 AT HAVERHILL,MA 13 6.17

 

  2021-07-27 16:00:00 HVRM3
01100870 MERRIMACK RIVER AT NEWBURYPORT, MA   4.49

 

  2021-07-27 16:00:00  
01101000 PARKER RIVER AT BYFIELD, MA   2.13 40.2 883 2021-07-27 16:30:00  
01101500 IPSWICH RIVER AT SOUTH MIDDLETON, MA   2.86 64.8 1,330 2021-07-27 16:30:00  
01102000 IPSWICH RIVER NEAR IPSWICH, MA 7 4.07 260 4,600 2021-07-27 16:00:00 IPSM3
01102345 SAUGUS RIVER AT SAUGUS IRONWORKS AT SAUGUS, MA   2.19 27.7 1,420 2021-07-27 16:00:00  
01102500 ABERJONA RIVER AT WINCHESTER, MA   7.69 42.0 1,590 2021-07-27 16:00:00 WCHM3
01103025 ALEWIFE BROOK NEAR ARLINGTON, MA   1.84 7.37 233 2021-07-27 16:15:00  
01103050 MYSTIC R AT AMELIA EARHART DAM NR SOMERVILLE, MA   105.54

 

  2021-07-27 16:30:00  
01103280 CHARLES RIVER AT MEDWAY, MA 5 1.27 87.9 1,820 2021-07-27 16:45:00 MEDM3
01103455 TROUT BROOK AT DOVER, MA   1.73 5.96 61.0 2021-07-27 16:00:00  
01103500 CHARLES RIVER AT DOVER, MA 5 2.12 282 3,220 2021-07-27 16:45:00 DOVM3
01104000 MOTHER BROOK AT DEDHAM, MA   81.03 58.4 1,040 2021-07-27 16:15:00 DDHM3
01104200 CHARLES RIVER AT WELLESLEY, MA   3.88 483 2,410 2021-07-27 11:35:00  
01104370 STONY BROOK AT VILES STREET, NEAR WESTON, MA   1.15 16.3 176 2021-07-27 16:40:00  
01104410 CAMBRIDGE RES., UNNAMED TRIB 1, NR LEXINGTON, MA   0.72

 

34.0 2021-07-27 15:30:00  
01104415 CAMBRIDGE RES., UNNAMED TRIB 2, NR LEXINGTON, MA   0.69 0.27 96.4 2021-07-27 16:30:00  
01104420 CAMBRIDGE RES., UNNAMED TRIB 3, NR LEXINGTON, MA   1.43 0.61 73.0 2021-07-27 16:30:00  
01104425 HOBBS BRK AT TRAPELO RD AT LINCOLN, MA   182.06

 

  2021-07-27 16:30:00  
01104430 HOBBS BK BELOW CAMBRIDGE RES NR KENDALL GREEN, MA   0.50 3.01 275 2021-07-27 16:45:00  
01104455 STONY BROOK, UNNAMED TRIBUTARY 1, NEAR WALTHAM, MA   3.26 0.47 176 2021-07-27 16:40:00  
01104460 STONY BROOK AT RT 20 AT WALTHAM, MA   5.39 29.8 1,240 2021-07-27 16:40:00  
01104475 STONY BROOK RES., UNNAMED TRIB 1, NEAR WESTON, MA   0.55 1.06 45.0 2021-07-27 16:30:00  
01104480 STONY BROOK RESERVOIR AT DAM NEAR WALTHAM, MA   0.98 6.59 1,140 2021-07-27 16:00:00  
01104500 CHARLES RIVER AT WALTHAM, MA 5 2.42 514 4,270 2021-07-27 16:30:00 WLTM3
01104501 BEAVER BROOK, LINDEN STREET, AT WALTHAM, MA   2.31 13.6 249 2021-07-27 16:00:00  
01104683 MUDDY RIVER AT BROOKLINE, MA 15 7.78

 

  2021-07-27 16:30:00 MUDM3
01104705 CHARLES RIVER AT FIRST ST AT CAMBRIDGE, MA   107.76

 

  2021-07-27 16:00:00  
01104715 CHARLES RIVER, NEW CHARLES RIVER DAM AT BOSTON, MA   107.70

 

  2021-07-27 16:00:00  
01105000 NEPONSET RIVER AT NORWOOD, MA 9 6.28 54.3 1,490 2021-07-27 16:00:00 NRWM3
01105500 EAST BRANCH NEPONSET RIVER AT CANTON, MA   1.42 46.9 1,790 2021-07-27 16:00:00 CANM3
011055525 PONKAPOAG BRK UPSTREAM RT 138,NR CANTON, MA   17.82 7.38 4.59 2021-07-27 16:30:00  
01105554 NEPONSET RIVER AT GREENLODGE ST NEAR CANTON, MA   9.28 173 1,700 2021-07-27 16:30:00  
011055566 NEPONSET RIVER AT MILTON VILLAGE, MA   2.25 297 3,190 2021-07-27 16:45:00 MLTM3
01105583 MONATIQUOT RIVER AT EAST BRAINTREE, MA   2.04 40.5 1,600 2021-07-27 16:30:00  
01105584 TOWN BROOK AT DIVERSION TUNNEL AT QUINCY, MA   16.66

 

  2021-07-27 16:00:00  
01105585 TOWN BROOK AT QUINCY, MA   1.93 7.31 513 2021-07-27 16:00:00  
01105600 OLD SWAMP RIVER NEAR SOUTH WEYMOUTH, MA   2.75 5.16 590 2021-07-27 16:00:00  
01105606 WHITMANS POND, WHITMANS POND DAM AT E. WEYMOUTH,MA   72.70 12.8 811 2021-07-27 16:15:00  
01105607 WHITMANS POND FLOOD BY-PASS AT EAST WEYMOUTH, MA   65.51

 

580 2021-07-27 16:00:00  
01105608 WHITMANS POND FISH LADDER AT EAST WEYMOUTH, MA   31.67 8.63 94.0 2021-07-27 16:45:00  
01105638 WEIR RIVER AT LEAVITT STREET AT HINGHAM, MA   1.51 16.7 475 2021-07-27 16:30:00  
01105730 INDIAN HEAD RIVER AT HANOVER, MA   1.76 25.4 1,520 2021-07-27 16:30:00  
01105870 JONES RIVER AT KINGSTON, MA   3.01 21.1 575 2021-07-27 16:15:00  
01105876 EEL RIVER AT RT 3A NEAR PLYMOUTH, MA   3.52

 

190 2021-07-27 16:15:00  
011058798 HERRING R AT CHEQUESSETT NECK RD AT WELLFLEET, MA   2.77

 

  2021-07-27 16:55:00  
01105880 HERRING RIVER AT NORTH HARWICH, MA   1.80 2.76 80.3 2021-07-27 16:45:00  
0110588332 MARSTONS MILLS RV, DS OUT. OF BOG, MARS. MILLS, MA   1.34

 

  2021-07-27 16:00:00  
0110588340 SANTUIT RIVER AT OLD KINGS ROAD AT SANTUIT, MA   10.12

 

  2021-07-27 15:45:00  
0110588364 QUASHNET R. 0.6 MI DS OF JOHNS POND NR MASHPEE, MA   8.33

 

  2021-07-27 15:45:00  
011058837 QUASHNET RIVER AT WAQUOIT VILLAGE, MA   2.01 13.2 83.0 2021-07-27 16:15:00  
01105917 MATTAPOISETT RIVER NEAR MATTAPOISETT, MA   3.55 6.12 910 2021-07-27 16:30:00  
01105933 PASKAMANSET RIVER NEAR SOUTH DARTMOUTH, MA   8.41 6.26 792 2021-07-27 16:15:00  
01108000 TAUNTON RIVER NEAR BRIDGEWATER, MA 8 4.15 376 5,480 2021-07-27 16:45:00 BDGM3
01108410 MILL RIVER AT SPRING STREET AT TAUNTON, MA 8.5 3.97 63.1 1,310 2021-07-27 16:00:00 TNMM3
01109000 WADING RIVER NEAR NORTON, MA 9.5 5.87 50.1 1,570 2021-07-27 16:15:00 NORM3
01109060 THREEMILE RIVER AT NORTH DIGHTON, MA   3.14 126 2,870 2021-07-27 16:15:00  
01109070 SEGREGANSET RIVER NEAR DIGHTON, MA 5 2.00 7.43 1,010 2021-07-27 16:45:00 DIGM3
01109730 BLACKSTONE RIVER, W. MAIN ST., AT MILLBURY, MA   2.38 173 5,960 2021-07-27 16:00:00  
01110000 QUINSIGAMOND RIVER AT NORTH GRAFTON, MA   1.66 52.8 820 2021-07-27 16:00:00  
01110500 BLACKSTONE RIVER AT NORTHBRIDGE, MA 9 3.87 1,000 16,900 2021-07-27 16:30:00 NBRM3
01111212 BLACKSTONE RIVER, RT 122 BRIDGE NEAR UXBRIDGE, MA   8.29 296 7,280 2021-07-27 16:00:00  
01123360 QUINEBAUG R BL E BRIMFIELD DAM AT FISKDALE, MA   3.84 185 15,400 2021-07-27 16:30:00  
01123600 QUINEBAUG R BL WESTVILLE DAM NR SOUTHBRIDGE, MA   4.38 242 1,850 2021-07-27 16:30:00  
01161280 CONNECTICUT RIVER NEAR NORTHFIELD, MA   12.12

 

  2021-07-27 16:00:00  
01162000 MILLERS RIVER NEAR WINCHENDON, MA   4.72 129 8,500 2021-07-27 16:00:00  
01162500 PRIEST BROOK NEAR WINCHENDON, MA   3.06 42.1 3,000 2021-07-27 16:45:00  
01163200 OTTER RIVER AT OTTER RIVER, MA   1.12 39.0 971 2021-07-27 16:15:00  
01166500 MILLERS RIVER AT ERVING, MA   3.66 1,070 29,000 2021-07-27 16:00:00  
01168250 COLD RIVER AT FLORIDA, MA   3.86 7.28 1,110 2021-07-27 16:30:00  
01168500 DEERFIELD RIVER AT CHARLEMONT, MA 10 3.24 1,050 56,300 2021-07-27 16:30:00 CLMM3
01169000 NORTH RIVER AT SHATTUCKVILLE, MA 9 2.61 156 30,300 2021-07-27 16:30:00 SHVM3
01169900 SOUTH RIVER NEAR CONWAY, MA   2.10 44.1 9,300 2021-07-27 16:00:00  
01170000 DEERFIELD RIVER NEAR WEST DEERFIELD, MA 9 3.35 1,410 89,800 2021-07-27 16:30:00 WDEM3
01170100 GREEN RIVER NEAR COLRAIN, MA 7 3.38 80.4 13,200 2021-07-27 16:00:00 CRNM3
01170500 CONNECTICUT RIVER AT MONTAGUE CITY, MA 28 12.14 14,800 236,000 2021-07-27 16:30:00 MNTM3
01171000 AVERY BROOK NR WHATELY, MA   4.18 5.52   2021-07-27 16:00:00  
01171100 WEST BROOK NR WHATELY, MA   17.85 16.1 2021-07-27 16:00:00  
01171500 MILL RIVER AT NORTHAMPTON, MA 11 6.24 77.4 7,020 2021-07-27 16:00:00 NMIM3
01172010 CONNECTICUT R AT I-391 BRIDGE AT HOLYOKE, MA 26.5 9.32 15,000 107,000 2021-07-27 16:30:00 HLYM3
01172500 WARE RIVER NEAR BARRE, MA   3.17 59.9 1,890 2021-07-27 16:30:00  
01173000 WARE RIVER AT INTAKE WORKS NEAR BARRE, MA   4.21 121 14,000 2021-07-27 16:15:00  
01173500 WARE RIVER AT GIBBS CROSSING, MA   2.81 257 22,700 2021-07-27 16:30:00  
01174500 EAST BRANCH SWIFT RIVER NEAR HARDWICK, MA   19.60 46.0 6,780 2021-07-27 16:30:00  
01174565 WEST BRANCH SWIFT RIVER NEAR SHUTESBURY, MA   1.58 26.8 1,520 2021-07-27 16:00:00  
01175500 SWIFT RIVER AT WEST WARE, MA   2.20 53.7 7,590 2021-07-27 16:15:00  
01175670 SEVENMILE RIVER NEAR SPENCER, MA   9.49 10.2 905 2021-07-27 16:30:00  
01176000 QUABOAG RIVER AT WEST BRIMFIELD, MA   4.33 439 12,800 2021-07-27 16:00:00  
01177000 CHICOPEE RIVER AT INDIAN ORCHARD, MA 12 5.43 914 45,200 2021-07-27 16:30:00 INDM3
01179500 WESTFIELD RIVER AT KNIGHTVILLE, MA   3.51 240 37,900 2021-07-27 16:30:00  
01181000 WEST BRANCH WESTFIELD RIVER AT HUNTINGTON, MA 9 4.29 239 32,400 2021-07-27 16:30:00 HNTM3
01183500 WESTFIELD RIVER NEAR WESTFIELD, MA 13 5.33 1,200 70,300 2021-07-27 16:30:00 WSFM3
01185500 WEST BRANCH FARMINGTON RIVER NEAR NEW BOSTON, MA 8 3.12 110 34,300 2021-07-27 16:30:00 NBSM3
01197000 EAST BRANCH HOUSATONIC RIVER AT COLTSVILLE, MA 5 1.26 107 6,410 2021-07-27 16:30:00 CTVM3
01197500 HOUSATONIC RIVER NEAR GREAT BARRINGTON, MA 9 3.29 829 12,200 2021-07-27 16:30:00 GTBM3
01198000 GREEN RIVER NEAR GREAT BARRINGTON, MA   1.44 137 9,220 2021-07-27 16:30:00  
01198125 HOUSATONIC RIVER NEAR ASHLEY FALLS, MA   6.64 1,760 10,100 2021-07-27 16:15:00  
01331500 HOOSIC RIVER AT ADAMS, MA   6.10 103 5,080 2021-07-27 16:45:00  
01332500 HOOSIC RIVER NEAR WILLIAMSTOWN, MA 9 5.84 289 14,900 2021-07-27 16:00:00 WILM3
01333000 GREEN RIVER AT WILLIAMSTOWN, MA   2.38 89.5 4,140 2021-07-27 16:15:00  
413601070275800 POPPONESSET BAY, MASHPEE NECK RD, NEAR MASHPEE, MA   1.60

 

  2021-07-27 16:00:00  
413758070320501 ASHUMET POND, FALMOUTH, MA   44.07

 

  2021-07-27 16:15:00  
414507070091400 SESUIT HARBOR TIDE GAGE AT DENNIS, MA   4.00

 

  2021-07-27 16:00:00  
415556070031901 UNNAMED TRIB. TO MILL CREEK, WELLFLEET, MA   0.81

 

  2021-06-11 09:30:00  
415560070032501 MILL CREEK US HERRING RIVER AT WELLFLEET MA   0.72

 

  2021-06-11 09:45:00  
415601070030701 MILL CK AT CHEQUESSETT YT & GOLF WELLFLEET MA   0.98

 

  2021-06-11 09:15:00  
420259070105600 PROVINCETOWN TIDE GAGE, PROVINCETOWN, MA   3.45

 

  2021-07-27 16:30:00  
420717071221301 KINGSBURY POND NEAR NORFOLK, MA   131.45

 

  2021-07-27 16:15:00  
422302071083801 FRESH POND IN GATE HOUSE AT CAMBRIDGE, MA   16.03

 

  2021-07-27 16:45:00